Regional Weather Roundup
Issued by NWS Columbia, SC

Home | Current Version | Previous Version | Text Only | Print | Product List | Glossary On
Versions: 1 2 3 4 5 6 7 8 9 10 11 12 13 14 15 16 17 18 19 20 21 22 23 24 25 26 27
000
ASUS42 KCAE 171710
RWRCAE
REGIONAL WEATHER ROUNDUP
NATIONAL WEATHER SERVICE COLUMBIA SC
100 PM EDT THU AUG 17 2017

NOTE: "FAIR" INDICATES FEW OR NO CLOUDS BELOW 12,000 FEET WITH NO
SIGNIFICANT WEATHER AND/OR OBSTRUCTIONS TO VISIBILITY.

NOT ALL STATIONS ARE QUALITY CONTROLLED BY THE NATIONAL
WEATHER SERVICE. USE DATA WITH CAUTION...ESPECIALLY
DEWPOINT OBSERVATIONS.

SCZ001>056-GAZ040-063>065-077-171800-
...UPSTATE SOUTH CAROLINA...

CITY           SKY/WX    TMP DP  RH WIND       PRES   REMARKS
ANDERSON       SUNNY     91  72  53 W8        30.06F HX  98
LIBERTY        SUNNY     90  75  61 SW6       30.05F HX 101
SPARTANBURG      N/A     88  72  58 W6        30.05F
CLEMSON        MOSUNNY   91  74  57 W10       30.07F HX 100
GREENVILLE     SUNNY     91  71  51 SW8       30.07F HX  97
GREENWOOD      MOSUNNY   90  73  57 W6        30.06F HX  98
GREER          MOSUNNY   89  71  55 W9        30.05F HX  95
ROCK HILL      MOSUNNY   91  76  61 SW7       30.04F HX 103
CHESTER        MOSUNNY   91  70  49 CALM      30.04F HX  97
LAURENS        MOSUNNY   91  72  52 SW6       30.04F HX  98


...CENTRAL SOUTH CAROLINA...

CITY           SKY/WX    TMP DP  RH WIND       PRES   REMARKS
COLUMBIA APT   LGT RAIN  89  75  63 SW3       30.01F HX  99
COLUMBIA OWENS CLOUDY    87  73  62 S7        30.03F
MCENTIRE ANGB  MOSUNNY   86  76  72 CALM      30.03F HX  96
ORANGEBURG     CLOUDY    92  75  57 S6        30.03F HX 103
SUMTER SHAW    PTSUNNY   94  73  49 NW6       29.99F HX 103
NEWBERRY       MOSUNNY   91  73  55 SW9       30.07F HX 100
AIKEN          FAIR      90  75  62 W8        30.08F HX 100
BARNWELL       FAIR      95  77  55 W8        30.04F HX 109
MANNING        FAIR      91  77  62 CALM      30.02F HX 105
CAMDEN         FAIR      95  73  49 SW7G14    30.02F HX 105
LANCASTER      SUNNY     93  75  55 S12       30.02F HX 104
WINNSBORO      MOSUNNY   93  72  49 SW6       30.03F HX 100


...EASTERN AND COASTAL SOUTH CAROLINA...

CITY           SKY/WX    TMP DP  RH WIND       PRES   REMARKS
MYRTLE BEACH   MOSUNNY   88  82  84 S12       30.03F HX 108
N MYRTLE BCH   MOSUNNY   87  82  85 S7        30.02F HX 106
CONWAY         FAIR      90  77  66 CALM      30.01F HX 102
MARION         PTSUNNY   91  72  52 W8        30.01F HX  98
HARTSVILLE     FAIR      91  73  55 SW5       30.01F HX 100
FLORENCE       MOSUNNY   94  75  54 W6        30.01F HX 105
DARLINGTON     PTSUNNY   95  76  53 VRB7      30.01F HX 108
CHARLESTON APT PTSUNNY   92  77  61 SW8       30.02F HX 105
MOUNT PLEASANT FAIR      95  77  55 SW5       30.02F HX 109
WALTERBORO     PTSUNNY   91  75  59 W6        30.03F HX 102
BEAUFORT       MOSUNNY   94  76  55 SW5       30.03F HX 106


...EASTERN GEORGIA...

CITY           SKY/WX    TMP DP  RH WIND       PRES   REMARKS
AUGUSTA BUSH F PTSUNNY   95  76  53 SW7       30.02F HX 108
AUGUSTA DANIEL PTSUNNY   93  72  50 NW9       30.05F HX 101
THOMSON        PTSUNNY   91  74  58 NW6       30.10F HX 100
WASHINGTON     FAIR     N/A N/A N/A W6        30.06F
CLAXTON        PTSUNNY   91  74  58 W7        30.06S HX 100
SYLVANIA       LGT RAIN  84  80  88 CALM      30.07S HX  97
STATESBORO     CLOUDY    90  73  56 CALM      30.06F HX  98
SAVANNAH       MOSUNNY   95  75  52 NW6       30.04F HX 107


...SOUTHERN NORTH CAROLINA...

CITY           SKY/WX    TMP DP  RH WIND       PRES   REMARKS
CHARLOTTE      MOSUNNY   91  77  63 SW9       30.04F HX 104
MONROE         SUNNY     91  73  55 SW10      30.02F HX  99
WADESBORO      PTSUNNY   92  73  52 CALM      30.01F HX 101
ROCKINGHAM     MOSUNNY   93  76  56 W6        30.01F HX 105
RUTHERFORDTON  MOSUNNY   87  73  62 S5        30.07F
ASHEVILLE      SUNNY     85  69  58 CALM      30.13F

$$




USA.gov is the U.S. government's official web portal to all federal, state and local government web resources and services.